TimeAST,TemperatureF,Dew PointF,Humidity,Sea Level PressureIn,VisibilityMPH,Wind Direction,Wind SpeedMPH,Gust SpeedMPH,PrecipitationIn,Events,Conditions,WindDirDegrees,DateUTC
12:00 AM,78.8,71.6,78,29.92,6.2,Calm,Calm,-,N/A,,Mostly Cloudy,0,2013-08-27 04:00:00
1:00 AM,78.8,71.6,78,29.89,6.2,Calm,Calm,-,N/A,,Mostly Cloudy,0,2013-08-27 05:00:00
2:00 AM,78.8,75.2,89,29.89,6.2,Calm,Calm,-,N/A,,Mostly Cloudy,0,2013-08-27 06:00:00
3:00 AM,77.0,71.6,83,29.89,6.2,Calm,Calm,-,N/A,,Mostly Cloudy,0,2013-08-27 07:00:00
4:00 AM,77.0,71.6,83,29.89,6.2,Calm,Calm,-,N/A,,Mostly Cloudy,0,2013-08-27 08:00:00
5:00 AM,77.0,71.6,83,29.89,6.2,Calm,Calm,-,N/A,,Mostly Cloudy,0,2013-08-27 09:00:00
6:00 AM,77.0,71.6,83,29.89,6.2,Calm,Calm,-,N/A,,Mostly Cloudy,0,2013-08-27 10:00:00
7:00 AM,80.6,73.4,79,29.92,6.2,Calm,Calm,-,N/A,,Mostly Cloudy,0,2013-08-27 11:00:00
8:00 AM,82.4,73.4,74,29.92,6.2,SW,5.8,-,N/A,,Scattered Clouds,230,2013-08-27 12:00:00
9:00 AM,86.0,75.2,70,29.95,6.2,South,3.5,-,N/A,,Scattered Clouds,170,2013-08-27 13:00:00
10:00 AM,86.0,75.2,70,29.95,6.2,Calm,Calm,-,N/A,,Mostly Cloudy,0,2013-08-27 14:00:00
12:00 PM,84.2,75.2,74,29.95,6.2,Calm,Calm,-,N/A,,Mostly Cloudy,0,2013-08-27 16:00:00
12:05 PM,84.2,75.2,74,29.92,5.0,Calm,Calm,-,N/A,Thunderstorm,Thunderstorm,0,2013-08-27 16:05:00
12:18 PM,84.2,73.4,70,29.95,1.9,Calm,Calm,-,N/A,Thunderstorm,Thunderstorm,0,2013-08-27 16:18:00
1:00 PM,82.4,73.4,74,29.92,4.3,NE,8.1,-,N/A,,Mostly Cloudy,40,2013-08-27 17:00:00
2:00 PM,82.4,73.4,74,29.92,5.0,Calm,Calm,-,N/A,,Mostly Cloudy,0,2013-08-27 18:00:00
3:00 PM,78.8,71.6,78,29.92,5.0,NE,8.1,-,N/A,Thunderstorm,Light Thunderstorm,40,2013-08-27 19:00:00
4:00 PM,78.8,75.2,89,29.89,5.0,East,5.8,-,N/A,,Mostly Cloudy,90,2013-08-27 20:00:00
5:00 PM,78.8,73.4,83,29.86,5.6,ENE,5.8,-,N/A,,Mostly Cloudy,60,2013-08-27 21:00:00
6:00 PM,78.8,73.4,83,29.86,6.2,East,5.8,-,N/A,,Mostly Cloudy,100,2013-08-27 22:00:00
7:00 PM,78.8,73.4,83,29.89,6.2,East,5.8,-,N/A,,Mostly Cloudy,100,2013-08-27 23:00:00
8:00 PM,78.8,73.4,83,29.92,6.2,Calm,Calm,-,N/A,,Scattered Clouds,0,2013-08-28 00:00:00
9:00 PM,77.0,73.4,89,29.95,6.2,Calm,Calm,-,N/A,,Scattered Clouds,0,2013-08-28 01:00:00
10:00 PM,77.0,71.6,83,29.98,6.2,Calm,Calm,-,N/A,,Scattered Clouds,0,2013-08-28 02:00:00